Weather History for Kayseri, Turkey

Change the Weather History Date:

Sunday, December 8, 2013

  Actual Average Record
Temperature  
Mean Temperature 24 °F -  
Max Temperature 29 °F 40 °F 60 °F (2005)
Min Temperature 19 °F 21 °F 12 °F (2004)
Degree Days  
Heating Degree Days 41    
Moisture  
Dew Point 18 °F    
Average Humidity 72    
Maximum Humidity 93    
Minimum Humidity 45    
Precipitation  
Precipitation 0.00 in - - ()
Sea Level Pressure  
Sea Level Pressure 30.12 in    
Wind  
Wind Speed 13 mph ()    
Max Wind Speed 21 mph    
Max Gust Speed -    
Visibility 6.6 miles    
Events Snow    
Averages and records for this station are not official NWS values.
T = Trace of Precipitation, MM = Missing Value Source: Averaged Metar Reports

Daily Weather History Graph

Daily Weather History Graph

Search for Another Location

Airport:

Trip Planner

Search our weather history database for the weather conditions in past years. The results will help you decide how hot, cold, wet, or windy it might be!

Date:

Astronomy

Dec. 08, 2013 Rise Set
Actual Time 6:43 AM EET 4:16 PM EET
Civil Twilight 6:13 AM EET 4:45 PM EET
Nautical Twilight 5:40 AM EET 5:19 PM EET
Astronomical Twilight 5:08 AM EET 5:51 PM EET
Moon 10:54 AM EET (12/8) 10:39 PM EET (12/8)
Length of Visible Light 10h 31m
Length of Day
9h 32m
Waxing Crescent, 36% of the Moon is Illuminated
Dec 8
Waxing Crescent
Dec 9
First Quarter
Dec 17
Full
Dec 25
Last Quarter
Jan 1
New

Hourly Weather History & Observations

Time (EET) Temp. Windchill Dew Point Humidity Pressure Visibility Wind Dir Wind Speed Gust Speed Precip Events Conditions
12:20 AM 32.0 °F 20.8 °F 30.2 °F 93% 29.95 in 1.8 mi West 17.3 mph - N/A Snow Light Snow
12:50 AM 32.0 °F 20.8 °F 30.2 °F 93% 29.95 in 3.7 mi West 17.3 mph - N/A Snow Light Snow
1:20 AM 32.0 °F 21.6 °F 28.4 °F 87% 29.98 in 4.3 mi WSW 15.0 mph - N/A Snow Light Snow
1:50 AM 30.2 °F 18.1 °F 28.4 °F 93% 29.98 in 3.7 mi WSW 18.4 mph - N/A Snow Light Snow
2:00 AM 30 °F - 28 °F 90%  in 4 mi WSW 18.4 mph - - Snow Light Snow
2:20 AM 30.2 °F 18.5 °F 28.4 °F 93% 30.01 in 5.0 mi WSW 17.3 mph - N/A Snow Light Snow
2:50 AM 30.2 °F 18.5 °F 26.6 °F 86% 30.01 in 5.0 mi WSW 17.3 mph - N/A Snow Light Snow
3:20 AM 28.4 °F 17.5 °F 24.8 °F 86% 30.01 in 6.2 mi WSW 13.8 mph - N/A Snow Light Snow
3:50 AM 28.4 °F 17.5 °F 23.0 °F 80% 30.01 in 6.2 mi West 13.8 mph - N/A   Mostly Cloudy
4:20 AM 28.4 °F 17.5 °F 21.2 °F 74% 30.04 in 6.2 mi WSW 13.8 mph - N/A   Mostly Cloudy
4:50 AM 26.6 °F 13.4 °F 19.4 °F 74% 30.04 in 6.2 mi WSW 18.4 mph - N/A   Mostly Cloudy
5:00 AM 27 °F - 19 °F 62%  in 12 mi WSW 18.4 mph - -   Partly Cloudy
5:20 AM 24.8 °F 13.4 °F 17.6 °F 74% 30.06 in 6.2 mi WSW 12.7 mph - N/A   Mostly Cloudy
5:50 AM 24.8 °F 14.6 °F 17.6 °F 74% 30.06 in 6.2 mi WSW 10.4 mph - N/A   Scattered Clouds
6:20 AM 24.8 °F 14.0 °F 17.6 °F 74% 30.09 in 6.2 mi WSW 11.5 mph - N/A   Scattered Clouds
6:50 AM 23.0 °F 11.7 °F 17.6 °F 80% 30.09 in 6.2 mi West 11.5 mph - N/A   Scattered Clouds
7:20 AM 23.0 °F 11.7 °F 17.6 °F 80% 30.09 in 6.2 mi WSW 11.5 mph - N/A   Scattered Clouds
7:50 AM 24.8 °F 12.9 °F 17.6 °F 74% 30.09 in 6.2 mi West 13.8 mph - N/A   Scattered Clouds
8:00 AM 24 °F - 17 °F 67%  in 12 mi West 13.8 mph - -   Partly Cloudy
8:20 AM 24.8 °F 12.9 °F 17.6 °F 74% 30.09 in 6.2 mi West 13.8 mph - N/A   Scattered Clouds
8:50 AM 26.6 °F 15.7 °F 17.6 °F 69% 30.12 in 6.2 mi West 12.7 mph - N/A   Scattered Clouds
9:20 AM 26.6 °F 15.7 °F 19.4 °F 74% 30.12 in 6.2 mi West 12.7 mph - N/A   Mostly Cloudy
9:50 AM 26.6 °F 16.2 °F 17.6 °F 69% 30.12 in 6.2 mi West 11.5 mph - N/A   Mostly Cloudy
10:20 AM 26.6 °F 16.2 °F 15.8 °F 64% 30.12 in 6.2 mi West 11.5 mph - N/A   Mostly Cloudy
10:50 AM 26.6 °F 14.7 °F 15.8 °F 64% 30.12 in 6.2 mi West 15.0 mph - N/A   Mostly Cloudy
11:00 AM 26 °F - 16 °F 54%  in 12 mi West 15.0 mph - -   Mostly Cloudy
11:20 AM 26.6 °F 15.2 °F 15.8 °F 64% 30.12 in 6.2 mi West 13.8 mph - N/A   Mostly Cloudy
11:50 AM 24.8 °F 12.4 °F 14.0 °F 64% 30.12 in 6.2 mi West 15.0 mph - N/A   Mostly Cloudy
12:20 PM 26.6 °F 16.2 °F 17.6 °F 69% 30.09 in 6.2 mi West 11.5 mph - N/A   Mostly Cloudy
12:50 PM 28.4 °F 16.6 °F 17.6 °F 64% 30.09 in 6.2 mi WSW 16.1 mph - N/A   Scattered Clouds
1:20 PM 28.4 °F 15.8 °F 17.6 °F 64% 30.09 in 6.2 mi WSW 18.4 mph - N/A   Scattered Clouds
1:50 PM 28.4 °F 16.2 °F 17.6 °F 64% 30.09 in 6.2 mi WSW 17.3 mph - N/A   Scattered Clouds
2:00 PM 29 °F - 16 °F 45%  in 12 mi WSW 17.3 mph - -   Partly Cloudy
2:20 PM 28.4 °F 16.6 °F 15.8 °F 59% 30.09 in 6.2 mi WSW 16.1 mph - N/A   Scattered Clouds
2:50 PM 26.6 °F 12.7 °F 17.6 °F 69% 30.12 in 6.2 mi WSW 20.7 mph - N/A   Scattered Clouds
3:20 PM 26.6 °F 13.4 °F 15.8 °F 64% 30.12 in 6.2 mi West 18.4 mph - N/A   Scattered Clouds
3:50 PM 26.6 °F 15.2 °F 15.8 °F 64% 30.12 in 6.2 mi WSW 13.8 mph - N/A   Scattered Clouds
4:20 PM 24.8 °F 14.6 °F 15.8 °F 69% 30.12 in 6.2 mi West 10.4 mph - N/A   Scattered Clouds
4:50 PM 24.8 °F 15.3 °F 15.8 °F 69% 30.15 in 6.2 mi West 9.2 mph - N/A   Scattered Clouds
5:00 PM 25 °F - 16 °F 56%  in 12 mi West 9.2 mph - -   Partly Cloudy
5:20 PM 24.8 °F 15.3 °F 15.8 °F 69% 30.18 in 6.2 mi West 9.2 mph - N/A   Scattered Clouds
5:50 PM 24.8 °F 15.3 °F 14.0 °F 64% 30.18 in 6.2 mi WNW 9.2 mph - N/A   Scattered Clouds
6:20 PM 23.0 °F 13.1 °F 14.0 °F 68% 30.18 in 6.2 mi West 9.2 mph - N/A   Scattered Clouds
6:50 PM 23.0 °F 12.4 °F 14.0 °F 68% 30.21 in 6.2 mi West 10.4 mph - N/A   Scattered Clouds
7:20 PM 23.0 °F 11.7 °F 14.0 °F 68% 30.21 in 6.2 mi West 11.5 mph - N/A   Scattered Clouds
7:50 PM 23.0 °F 12.4 °F 15.8 °F 74% 30.21 in 6.2 mi West 10.4 mph - N/A   Scattered Clouds
8:00 PM 23 °F - 16 °F 65%  in 12 mi West 10.4 mph - -   Partly Cloudy
8:20 PM 23.0 °F 11.1 °F 14.0 °F 68% 30.21 in 6.2 mi WSW 12.7 mph - N/A   Scattered Clouds
8:50 PM 21.2 °F 8.3 °F 14.0 °F 74% 30.21 in 6.2 mi West 13.8 mph - N/A   Scattered Clouds
9:20 PM 23.0 °F 10.6 °F 14.0 °F 68% 30.24 in 6.2 mi West 13.8 mph - N/A   Scattered Clouds
9:50 PM 23.0 °F 12.4 °F 14.0 °F 68% 30.24 in 6.2 mi West 10.4 mph - N/A   Scattered Clouds
10:20 PM 21.2 °F 8.9 °F 14.0 °F 74% 30.24 in 6.2 mi WSW 12.7 mph - N/A   Scattered Clouds
10:50 PM 21.2 °F 9.5 °F 14.0 °F 74% 30.24 in 6.2 mi WSW 11.5 mph - N/A   Scattered Clouds
11:00 PM 21 °F - 14 °F 66%  in 12 mi WSW 11.5 mph - -   Partly Cloudy
11:20 PM 19.4 °F 8.6 °F 14.0 °F 80% 30.24 in 6.2 mi WSW 9.2 mph - N/A   Scattered Clouds
11:50 PM 21.2 °F 10.1 °F 14.0 °F 74% 30.27 in 6.2 mi WSW 10.4 mph - N/A   Scattered Clouds